Weather History for KPKD - February, 2014

Change the Weather History Date:

Thursday, February 6, 2014

  Actual Average Record
Temperature  
Mean Temperature -8 °F -  
Max Temperature 3 °F 19 °F 44 °F (1991)
Min Temperature -20 °F -4 °F -36 °F (1967)
Degree Days  
Heating Degree Days 74    
Moisture  
Dew Point -10 °F    
Average Humidity 79    
Maximum Humidity 87    
Minimum Humidity 69    
Precipitation  
Precipitation 0.00 in - - ()
Sea Level Pressure  
Sea Level Pressure 30.26 in    
Wind  
Wind Speed 10 mph (West)    
Max Wind Speed 18 mph    
Max Gust Speed 24 mph    
Visibility 9 miles    
Events      
Averages and records for this station are not official NWS values.
T = Trace of Precipitation, MM = Missing Value Source: NWS Daily Summary

Daily Weather History Graph

Daily Weather History Graph

Search for Another Location

Airport or City:

Trip Planner

Search our weather history database for the weather conditions in past years. The results will help you decide how hot, cold, wet, or windy it might be!

Date:

Astronomy

Feb. 06, 2014 Rise Set
Actual Time 7:38 AM CST 5:31 PM CST
Civil Twilight 7:06 AM CST 6:03 PM CST
Nautical Twilight 6:30 AM CST 6:39 PM CST
Astronomical Twilight 5:54 AM CST 7:14 PM CST
Moon 11:02 AM CST (2/6) 12:54 AM CST (2/6)
Length of Visible Light 10h 57m
Length of Day
9h 53m
Waxing Crescent, 49% of the Moon is Illuminated
Feb 6
Waxing Crescent
Feb 6
First Quarter
Feb 14
Full
Feb 22
Last Quarter
Mar 1
New

Hourly Weather History & Observations

Time (CST) Temp. Windchill Dew Point Humidity Pressure Visibility Wind Dir Wind Speed Gust Speed Precip Events Conditions
12:53 AM -7.1 °F -25.0 °F -11.0 °F 83% 30.48 in 10.0 mi WNW 10.4 mph - N/A   Overcast
1:53 AM -11.0 °F -26.2 °F -15.0 °F 83% 30.48 in 10.0 mi West 6.9 mph - N/A   Partly Cloudy
2:53 AM -15.0 °F -32.4 °F -18.0 °F 86% 30.46 in 10.0 mi West 8.1 mph - N/A   Clear
3:53 AM -18.0 °F -34.7 °F -20.9 °F 87% 30.45 in 10.0 mi West 6.9 mph - N/A   Clear
4:53 AM -17.0 °F -36.1 °F -20.0 °F 86% 30.44 in 10.0 mi West 9.2 mph - N/A   Clear
5:53 AM -18.0 °F -36.1 °F -22.0 °F 82% 30.43 in 10.0 mi West 8.1 mph - N/A   Clear
6:53 AM -18.0 °F -30.9 °F -23.1 °F 78% 30.40 in 10.0 mi West 4.6 mph - N/A   Clear
7:53 AM -20.9 °F -38.1 °F -25.1 °F 81% 30.39 in 10.0 mi SSW 6.9 mph - N/A   Clear
8:53 AM -17.0 °F -34.8 °F -20.0 °F 86% 30.38 in 10.0 mi SW 8.1 mph - N/A   Clear
9:53 AM -11.0 °F -27.6 °F -15.0 °F 83% 30.36 in 10.0 mi West 8.1 mph - N/A   Clear
10:44 AM -5.1 °F -25.9 °F -11.0 °F 76% 30.20 in 9.0 mi West 15.0 mph - N/A   Mostly Cloudy
10:53 AM -5.1 °F -26.6 °F -11.0 °F 76% 30.35 in 8.0 mi West 16.1 mph - N/A   Mostly Cloudy
11:08 AM -4.0 °F -26.4 °F -11.0 °F 72% 30.20 in 10.0 mi WNW 18.4 mph 24.2 mph N/A   Scattered Clouds
11:53 AM -2.0 °F -20.5 °F -9.0 °F 72% 30.32 in 10.0 mi West 12.7 mph - 0.00 in   Clear
12:53 PM 1.0 °F -17.3 °F -7.1 °F 69% 30.30 in 10.0 mi WNW 13.8 mph - N/A   Overcast
1:53 PM 1.9 °F -15.5 °F -6.0 °F 69% 30.27 in 10.0 mi West 12.7 mph - N/A   Scattered Clouds
2:53 PM 3.0 °F -13.3 °F -5.1 °F 69% 30.26 in 10.0 mi West 11.5 mph - N/A   Mostly Cloudy
3:53 PM 3.0 °F -14.1 °F -5.1 °F 69% 30.26 in 10.0 mi West 12.7 mph - N/A   Mostly Cloudy
4:53 PM 1.0 °F -16.6 °F -6.0 °F 72% 30.25 in 10.0 mi West 12.7 mph - N/A   Scattered Clouds
5:53 PM 1.0 °F -14.9 °F -4.0 °F 79% 30.23 in 6.0 mi WSW 10.4 mph - N/A   Haze
6:53 PM -2.9 °F -18.8 °F -6.0 °F 87% 30.22 in 10.0 mi WSW 9.2 mph - N/A   Mostly Cloudy
7:01 PM -2.9 °F -18.8 °F -7.1 °F 82% 30.07 in 10.0 mi WSW 9.2 mph - N/A   Scattered Clouds
7:41 PM -0.9 °F -17.4 °F -5.1 °F 83% 30.05 in 6.0 mi WSW 10.4 mph - N/A   Mostly Cloudy
7:50 PM -0.4 °F -17.6 °F -5.8 °F 78% 30.05 in 6.0 mi WSW 11.5 mph - N/A   Mostly Cloudy
7:53 PM -0.9 °F -18.3 °F -5.1 °F 83% 30.20 in 7.0 mi WSW 11.5 mph - N/A   Mostly Cloudy
8:01 PM -2.0 °F -18.7 °F -5.1 °F 87% 30.04 in 10.0 mi WSW 10.4 mph - N/A   Scattered Clouds
8:45 PM -0.9 °F -19.1 °F -5.1 °F 83% 30.04 in 9.0 mi WSW 12.7 mph - N/A   Mostly Cloudy
8:53 PM -0.9 °F -19.9 °F -5.1 °F 83% 30.18 in 10.0 mi WSW 13.8 mph - N/A   Mostly Cloudy
9:16 PM -0.9 °F -20.6 °F -5.1 °F 83% 30.03 in 10.0 mi WSW 15.0 mph - N/A   Scattered Clouds
9:53 PM -0.9 °F -19.9 °F -6.0 °F 79% 30.17 in 10.0 mi WSW 13.8 mph - N/A   Clear
10:53 PM -2.0 °F -21.2 °F -7.1 °F 79% 30.14 in 10.0 mi West 13.8 mph - N/A   Clear
11:53 PM -2.9 °F -22.4 °F -8.0 °F 79% 30.12 in 10.0 mi West 13.8 mph - N/A   Clear